星链-30316 (STARLINK-30316 )

导读

STARLINK‑30316是美国太空探索技术公司(SpaceX)于2023年8月22日发射的星链(Starlink)低轨通信卫星,属于星链第二代规模扩张中的一员,运行在近地轨道,通过星间激光链路与相控阵天线技术,为全球用户提供高速低延迟宽带互联网接入,是星链星座实现全球覆盖组网的重要组成部分,推动偏远地区连通与手机直连卫星服务的落地。

Basic Information
目录编号:
57673
目录名称:
STARLINK-30316
国际标识:
2023-124L
轨道中心:
EARTH
卫星名称:
星链-30316
卫星全名:
星链-30316 (STARLINK-30316 )
卫星状态:
在轨 (已飞行1116 天)
发射日期:
2023-08-22 UTC
国别 :
美国 (US)
星等 :
--
This satellite is enrolled in the Space Conjunction Data Service (SCDS) and the current flight risk assessment level is: High Risk
Orbit Information
数据来源 国际轨道数据 AOE轨道数据
星历时间 2026-09-11T02:09:08+0800
21小时前
查看轨道信息
2026-09-07T08:00:00+0800
4天前
查看轨道信息
半长轴 6840.876km 6840.864km
偏心率 0.0001196 0.0001795
轨道倾角 53.161° 53.164°
近地点辐角 69.735° 89.109°
升交点赤经 64.925° 82.486°
平近点角 290.378° 30.097°
近地点 461.92km 461.499km
远地点 463.558km 463.955km
周期 93.848分钟 93.848分钟
每日圈数 15.34388 15.343921
Detailed Information
固有亮度:
5
最大亮度:
0.3
卫星平台:
Starlink v2.0 mini
覆盖范围:
全球
运营商:
太空探索技术公司
运营商所在国:
美国
制造商(研发单位):
太空探索技术公司
制造商所在国:
美国
使用方式:
暂无
Satellite Introduction
星链(Starlink)计划是由太空探索技术公司(SpaceX)提出的一个巨型低轨卫星互联网星座项目,计划在2019年至2024年间在太空搭建由约1.2万颗卫星组成的“星链”网络,其中1584颗将部署在地球上空550千米处的近地轨道,并从2020年开始工作。该卫星仍在工作。
2D Orbit Map
3D Orbit Map
Orbit Altitude Analysis Chart
Orbit Inclination Analysis Chart
Orbit Comprehensive Analysis Chart
View Comprehensive Chart
Conjunction Data List
Event ID Objects TCA Miss Dist (km) Collision Risk Probability Collision Risk Index (CRI) Action
CDM_260913-094705-767306-995122
2026-09-13T
09:47:35+0000
0.461 km
远距离
1.2698E-4 高风险 0.77
CDM_260913-024505-767306-995122
2026-09-13T
02:45:31+0000
1.319 km
极远距离
4.746376E-6 低风险 0.49
CDM_260912-053804-177205-767323
2026-09-12T
05:38:23+0000
1.759 km
极远距离
3.818452E-6 低风险 0.47
CDM_260913-041905-767306-995122
2026-09-13T
04:19:19+0000
1.769 km
极远距离
1.936556E-6 低风险 0.41
CDM_260913-081305-767306-995121
2026-09-13T
08:13:48+0000
2.833 km
极远距离
7.589163E-7 极低风险 0.33
Miss Distance Evolution Trend with All Objects
Collision Probability Evolution Trend with All Objects